Location: Heathcote
(40.9845°N, 73.7746°W)
Time: 04:35:32
(UTC+00:00)

YAOGAN 6 - Pass Details

Date: 29 October 2020
Orbit: 465 x 503 km, 97.0° (Epoch: 23 November)

Event Time Altitude Azimuth Distance (km) Brightness Sun altitude
Rises 22:25:10 0° 177° (S) 2,562 6.4 -6.5°
Reaches altitude 10° 22:27:15 10° 182° (S) 1,691 5.5 -6.9°
Maximum altitude 22:30:50 54° 261° (W) 616 3.6 -7.6°
Drops below altitude 10° 22:34:28 10° 339° (NNW) 1,719 5.5 -8.2°
Sets 22:36:36 0° 344° (NNW) 2,610 6.3 -8.6°
